Hulianwang W. Digui 02-08

operational
NORAD ID: 62978 Int'l Des: 2025-030 Owner: ZXW Country: CN Constellation: xingwang
LEOCIRCULAR

About Hulianwang W. Digui 02-08

Description loading...

Live Position

Loading 3D Globe...

Upcoming Passes

Altitude History

Altitude vs Time

uPlot chart will show altitude changes over time

Two-Line Element Set

1 62978U 25030H 25344.62729995 -.00000089 00000-0 74628-4 0 9998
2 62978 50.0043 191.7759 0000697 12.9906 347.0984 13.29331133 40787
Epoch: Dec 10, 2025 • Age: 6 hours

Current Status

Altitude 1150.3 km
Velocity 7.28 km/s
Sub-Earth Point 0.09°N, 29.63°W
Launch Date Feb 11, 2025
Age 0.8 years
Type other

Technical Details

Classification Payload
Mass 800.00 kg
Dry Mass 800.00 kg
Total Mass 800.00 kg
Length 3.00 m
Diameter 1.00 m
Span 10.00 m
Shape Box + 2 Pan
Manufacturer CAST
Bus Type Guowang C
Phase Status In Orbit
Owner/State ZXW/CN

Large Constellations

Loading constellations...